CAPE
14 18 20 4 13 5 1 3 17 33 21 3 10 15 6 17 10 1 0 0 2 0 0 0 0 0 0 0 0 0 0 0 0 0 2 0 0 0 0 0 0 0 0 0 0 2 0 0 1 0 0 0 1 0
24 17 18 22 20 10 3 3 2 36 23 15 14 15 15 29 24 13 3 0 0 7 0 0 0 0 0 0 0 0 0 0 0 0 0 0 0 0 0 0 0 0 0 0 0 0 0 0 0 10 0 0 0 0
21 18 16 38 5 3 11 7 0 21 27 16 13 11 22 28 28 9 0 1 1 4 0 0 0 0 0 0 0 0 0 0 0 0 0 0 1 0 0 0 0 0 1 5 0 0 0 15 0 1 0 0 0 0
33 8 8 5 5 24 16 7 0 11 22 21 4 23 32 22 28 26 7 4 3 2 5 0 0 0 0 0 0 0 0 0 0 0 1 0 0 0 0 1 0 0 0 5 9 4 1 4 3 0 0 0 0 0
5 0 0 2 5 2 20 4 3 2 6 16 32 35 28 31 39 29 7 1 1 0 0 0 0 0 0 0 0 0 0 0 0 9 5 0 0 0 0 0 5 2 0 0 0 0 1 4 0 0 0 0 0 0
3 0 6 10 6 9 13 12 2 0 9 8 25 31 30 31 30 20 6 0 1 10 4 1 0 0 0 0 0 0 0 0 20 23 13 11 7 11 0 0 6 20 4 2 0 5 2 1 0 0 0 0 0 0
3 8 24 5 21 22 22 3 0 0 8 16 24 23 16 10 12 6 0 0 2 7 0 0 0 0 2 0 0 0 0 0 0 1 6 8 5 9 2 0 0 5 5 4 3 3 0 1 0 2 0 0 0 0
1 2 24 25 5 3 0 0 2 1 11 28 28 14 9 8 9 7 0 8 7 0 0 0 0 0 2 0 0 0 0 0 0 4 7 3 1 0 2 0 0 0 0 1 0 0 1 0 0 0 0 0 0 0
6 4 10 7 0 1 1 6 8 24 34 15 12 12 10 3 0 0 1 3 1 0 0 1 0 0 0 0 0 0 0 2 0 8 0 0 0 3 1 0 0 1 0 0 0 0 0 0 0 0 0 0 0 0
4 1 0 0 0 6 8 28 23 18 21 15 9 1 0 0 0 3 3 0 0 0 0 0 0 0 0 0 0 1 1 0 4 0 0 2 2 3 2 2 2 3 0 0 0 0 0 0 0 1 2 1 1 1
1 0 1 1 2 12 16 18 15 11 11 3 0 0 0 4 0 0 0 0 0 0 1 0 0 0 0 1 0 0 0 0 0 0 1 1 0 1 1 1 1 0 0 0 1 0 1 2 1 3 0 1 1 1
3 4 5 6 11 8 7 7 6 7 1 0 0 1 4 1 0 0 0 0 0 0 0 0 0 0 4 7 0 0 0 0 0 0 0 0 1 0 0 0 0 0 0 0 0 0 1 2 0 2 0 0 0 0
8 7 5 5 5 4 4 1 6 0 0 0 0 0 0 0 0 0 0 0 0 0 0 0 1 0 5 0 0 0 0 0 0 0 0 0 1 1 1 0 0 0 0 0 0 0 0 0 0 0 0 0 0 0
4 3 4 4 2 3 13 0 3 5 5 0 0 0 0 0 0 0 0 0 0 0 0 0 0 6 3 0 0 0 0 0 0 0 0 0 0 0 0 0 0 0 0 0 0 0 0 0 0 0 0 0 0 0
2 4 16 11 15 19 0 2 3 0 0 0 0 0 0 0 0 0 1 0 0 0 0 1 1 0 0 0 0 0 0 0 0 0 0 0 1 0 0 0 0 0 0 0 0 0 0 0 0 0 0 0 0 0
1 4 14 10 4 1 1 1 0 0 0 0 0 0 0 0 0 0 0 0 0 0 0 0 0 0 0 0 0 0 0 0 0 0 0 0 0 0 0 0 0 0 0 0 0 0 0 0 0 0 0 0 0 0
9 3 3 2 0 0 0 0 0 0 0 0 0 0 0 0 0 0 0 0 1 0 0 0 0 0 0 0 0 0 0 0 0 0 0 0 0 0 0 0 0 0 0 0 0 0 0 0 0 0 0 0 0 0
1 1 1 0 0 0 0 0 0 0 0 0 0 0 0 0 0 0 0 0 0 0 0 0 0 0 0 0 0 0 0 0 0 0 0 0 0 0 0 0 0 0 0 0 0 0 0 0 0 0 0 0 0 0
1 1 0 0 0 0 0 0 0 0 0 0 0 0 0 0 0 0 0 0 0 0 0 0 0 0 0 0 0 0 0 0 0 0 0 0 0 0 0 0 0 0 0 0 0 0 0 0 0 0 0 0 0 0
0 0 0 0 0 0 0 0 0 0 0 0 0 0 0 0 0 0 0 0 0 0 0 0 0 0 0 0 0 0 0 0 0 0 0 0 0 0 0 0 0 0 0 0 0 0 0 0 0 0 0 0 0 0
0 0 0 0 0 0 0 0 0 0 0 0 0 0 0 0 0 0 0 0 0 0 0 0 0 0 0 0 0 0 0 0 0 0 0 0 0 0 0 0 0 0 0 0 0 0 0 0 0 0 0 0 0 0
0 0 0 0 0 0 0 0 0 0 0 0 0 0 0 0 0 0 0 0 0 0 0 0 0 0 0 0 0 0 0 0 0 0 0 0 0 0 0 0 0 0 0 0 0 0 0 0 0 0 0 0 0 0
0 0 0 0 0 0 0 0 0 0 0 0 0 0 0 0 0 0 0 0 0 0 0 0 0 0 0 0 0 0 0 0 0 0 0 0 0 0 0 0 0 0 0 0 0 0 0 0 0 0 0 0 0 0
0 0 0 0 0 0 0 0 0 0 0 0 0 0 0 0 0 0 0 0 0 0 0 0 0 0 0 0 0 0 0 0 0 0 0 0 0 0 0 0 0 0 0 0 0 0 0 0 0 0 0 0 0 0
0 0 0 0 0 0 0 0 0 0 0 0 0 0 0 0 0 0 0 0 0 0 0 0 0 0 0 0 0 0 0 0 0 0 0 0 0 0 0 0 0 0 0 0 0 0 0 0 0 0 0 0 0 0
0 0 0 0 0 0 0 0 0 0 0 0 0 0 0 0 0 0 0 0 0 0 0 0 0 0 0 0 0 0 0 0 0 0 0 0 0 0 0 0 0 0 0 0 0 0 0 0 0 0 0 0 0 0
0 0 0 0 0 0 0 0 0 0 0 0 0 0 0 0 0 0 0 0 0 0 0 0 0 0 0 0 0 0 0 0 0 0 0 0 0 0 0 0 0 0 0 0 0 0 0 0 0 0 0 0 0 0
0 0 0 0 0 0 0 0 0 0 0 0 0 0 0 0 0 0 0 0 0 0 0 0 0 0 0 0 0 0 0 0 0 0 0 0 0 0 0 0 0 0 0 0 0 0 0 0 0 0 0 0 0 0
0 0 0 0 0 0 0 0 0 0 0 0 0 0 0 0 0 0 0 0 0 0 0 0 0 0 0 0 0 0 0 0 0 0 0 0 0 0 0 0 0 0 0 0 0 0 0 0 0 0 0 0 0 0
0 0 0 0 0 0 0 0 0 0 0 0 0 0 0 0 0 0 0 0 0 0 0 0 0 0 0 0 0 0 0 0 0 0 0 0 0 0 0 0 0 0 0 0 0 0 0 0 0 0 0 0 0 0
0 0 0 0 0 0 0 0 0 0 0 0 0 0 0 0 0 0 0 0 0 0 0 0 0 0 0 0 0 0 0 0 0 0 0 0 0 0 0 0 0 0 0 0 0 0 0 0 0 0 0 0 0 0
0 0 0 0 0 0 0 0 0 0 0 0 0 0 0 0 0 0 0 0 0 0 0 0 0 0 0 0 0 0 0 0 0 0 0 0 0 0 0 0 0 0 0 0 0 0 0 0 0 0 0 0 0 0
0 0 0 0 0 0 0 0 0 0 0 0 0 0 0 0 0 0 0 0 0 0 0 0 0 0 0 0 0 0 0 0 0 0 0 0 0 0 0 0 0 0 0 0 0 0 0 0 0 0 0 0 0 0
CIN
-2 -1 -3 -12 -5 -4 -10 -12 -4 -1 -0 -0 -1 -6 -12 -8 -7 -9 -0 -0 -5 -0 -0 -0 -0 -0 -0 -0 -0 -0 -0 -0 -0 -0 -4 -0 -0 -0 -0 -0 -0 -0 -0 -0 -0 -2 -0 -0 -19 -0 -0 -0 -18 -0
-1 -2 -1 -2 -1 -2 -5 -3 -5 -1 -2 -0 -3 -6 -7 -2 -2 -2 -1 -0 -6 -0 -0 -0 -0 -0 -0 -0 -0 -0 -0 -0 -0 -0 -0 -0 -0 -0 -0 -0 -0 -0 -0 -0 -0 -0 -0 -0 -0 -40 -0 -0 -0 -0
-1 -6 -2 -1 -11 -7 -3 -1 -2 -1 -2 -0 -6 -7 -3 -0 -1 -1 -0 -1 -0 -1 -3 -0 -0 -0 -0 -0 -0 -0 -0 -0 -0 -0 -0 -0 -1 -0 -0 -0 -0 -0 -0 -1 -0 -0 -0 -38 -0 -21 -0 -0 -0 -0
-0 -4 -5 -7 -6 -2 -0 -2 -6 -2 -1 -0 -8 -4 -0 -0 -0 -2 -1 -5 -4 -1 -1 -0 -0 -0 -0 -0 -0 -0 -0 -0 -0 -0 -5 -0 -0 -0 -0 -0 -0 -0 -0 -3 -8 -11 -22 -29 -85 -0 -0 -0 -0 -0
-1 -0 -0 -0 -0 -15 -1 -0 -1 -5 -0 -0 -0 -0 -0 -0 -0 -0 -7 -2 -3 -1 -0 -0 -0 -0 -0 -0 -0 -0 -0 -0 -0 -0 -2 -0 -0 -0 -0 -0 -1 -6 -0 -0 -0 -0 -0 -9 -0 -0 -0 -0 -0 -0
-0 -0 -0 -1 -1 -3 -1 -0 -3 -0 -0 -0 -0 -0 -0 -0 -2 -0 -0 -2 -2 -0 -3 -2 -0 -0 -0 -0 -0 -0 -0 -0 -4 -1 -3 -5 -14 -3 -0 -0 -5 -6 -0 -0 -0 -0 -0 -0 -0 -0 -0 -0 -0 -0
-1 -0 -0 -7 -0 -0 -0 -1 -0 -0 -0 -0 -0 -0 -3 -1 -2 -1 -0 -0 -0 -0 -1 -3 -0 -0 -16 -0 -0 -0 -0 -0 -0 -1 -1 -3 -3 -2 -3 -0 -0 -1 -0 -0 -0 -0 -0 -0 -0 -0 -0 -0 -0 -0
-1 -1 -0 -0 -0 -0 -0 -0 -0 -0 -0 -0 -0 -3 -2 -0 -0 -0 -0 -0 -0 -0 -1 -1 -0 -0 -40 -25 -36 -0 -0 -8 -1 -3 -4 -5 -5 -0 -0 -0 -0 -0 -0 -0 -0 -0 -0 -0 -0 -0 -0 -0 -0 -0
-1 -0 -0 -0 -0 -0 -0 -0 -0 -0 -0 -0 -0 -0 -0 -0 -0 -0 -1 -0 -0 -0 -0 -1 -0 -0 -0 -0 -0 -0 -0 -4 -3 -3 -1 -0 -0 -0 -1 -0 -0 -0 -0 -0 -0 -0 -0 -0 -0 -0 -0 -0 -0 -0
-1 -2 -0 -0 -0 -2 -1 -0 -0 -0 -0 -0 -0 -0 -0 -0 -4 -0 -0 -0 -0 -0 -0 -0 -0 -0 -0 -0 -0 -0 -1 -0 -1 -0 -2 -3 -1 -0 -0 -0 -0 -0 -0 -0 -0 -0 -0 -0 -0 -0 -0 -0 -0 -0
-1 -0 -0 -0 -1 -5 -0 -0 -0 -0 -0 -0 -0 -0 -0 -0 -0 -0 -0 -0 -2 -0 -0 -0 -0 -0 -0 -4 -0 -0 -0 -0 -0 -0 -0 -1 -0 -0 -0 -0 -0 -0 -0 -0 -0 -0 -0 -0 -0 -0 -0 -0 -0 -0
-10 -5 -2 -1 -0 -0 -0 -0 -0 -0 -0 -0 -0 -0 -5 -8 -0 -0 -0 -0 -0 -0 -0 -0 -0 -0 -10 -8 -0 -0 -0 -0 -0 -0 -0 -0 -0 -0 -0 -0 -0 -0 -0 -0 -0 -0 -0 -0 -0 -0 -0 -0 -0 -0
-0 -0 -0 -0 -0 -0 -0 -0 -0 -0 -0 -8 -11 -0 -0 -0 -0 -0 -0 -0 -0 -0 -0 -0 -0 -0 -7 -0 -0 -0 -0 -0 -0 -0 -0 -0 -0 -0 -0 -0 -0 -0 -0 -0 -0 -0 -0 -0 -0 -0 -0 -0 -0 -0
-0 -0 -0 -0 -0 -0 -0 -0 -2 -5 -7 -0 -0 -0 -0 -0 -0 -0 -0 -0 -0 -0 -0 -0 -1 -3 -8 -0 -0 -0 -0 -0 -0 -0 -0 -0 -0 -0 -0 -0 -0 -0 -0 -0 -0 -0 -0 -0 -0 -0 -0 -0 -0 -0
-0 -1 -0 -0 -0 -0 -0 -1 -3 -0 -0 -0 -0 -0 -0 -0 -0 -0 -0 -0 -0 -0 -0 -12 -3 -0 -0 -0 -0 -0 -0 -0 -0 -0 -0 -0 -0 -0 -0 -0 -0 -0 -0 -0 -0 -0 -0 -0 -0 -0 -0 -0 -0 -0
-0 -0 -0 -0 -1 -0 -1 -0 -0 -0 -0 -0 -0 -0 -0 -0 -0 -0 -0 -0 -0 -0 -0 -0 -0 -0 -0 -0 -0 -0 -0 -0 -0 -0 -0 -0 -0 -0 -0 -0 -0 -0 -0 -0 -0 -0 -0 -0 -0 -0 -0 -0 -0 -0
-0 -0 -1 -0 -0 -0 -0 -0 -0 -0 -0 -0 -0 -0 -0 -0 -0 -0 -0 -0 -0 -0 -1 -0 -0 -0 -0 -0 -0 -0 -0 -0 -0 -0 -0 -0 -0 -0 -0 -0 -0 -0 -0 -0 -0 -0 -0 -0 -0 -0 -0 -0 -0 -0
-0 -0 -0 -0 -0 -0 -0 -0 -0 -0 -0 -0 -0 -0 -0 -0 -0 -0 -0 -0 -0 -0 -0 -0 -0 -0 -0 -0 -0 -0 -0 -0 -0 -0 -0 -0 -0 -0 -0 -0 -0 -0 -0 -0 -0 -0 -0 -0 -0 -0 -0 -0 -0 -0
-0 -0 -0 -0 -0 -0 -0 -0 -0 -0 -0 -0 -0 -0 -0 -0 -0 -0 -0 -0 -0 -0 -0 -0 -0 -0 -0 -0 -0 -0 -0 -0 -0 -0 -0 -0 -0 -0 -0 -0 -0 -0 -0 -0 -0 -0 -0 -0 -0 -0 -0 -0 -0 -0
-0 -0 -0 -0 -0 -0 -0 -0 -0 -0 -0 -0 -0 -0 -0 -0 -0 -0 -0 -0 -0 -0 -0 -0 -0 -0 -0 -0 -0 -0 -0 -0 -0 -0 -0 -0 -0 -0 -0 -0 -0 -0 -0 -0 -0 -0 -0 -0 -0 -0 -0 -0 -0 -0
-0 -0 -0 -0 -0 -0 -0 -0 -0 -0 -0 -0 -0 -0 -0 -0 -0 -0 -0 -0 -0 -0 -0 -0 -0 -0 -0 -0 -0 -0 -0 -0 -0 -0 -0 -0 -0 -0 -0 -0 -0 -0 -0 -0 -0 -0 -0 -0 -0 -0 -0 -0 -0 -0
-0 -0 -0 -0 -0 -0 -0 -0 -0 -0 -0 -0 -0 -0 -0 -0 -0 -0 -0 -0 -0 -0 -0 -0 -0 -0 -0 -0 -0 -0 -0 -0 -0 -0 -0 -0 -0 -0 -0 -0 -0 -0 -0 -0 -0 -0 -0 -0 -0 -0 -0 -0 -0 -0
-0 -0 -0 -0 -0 -0 -0 -0 -0 -1 -0 -0 -0 -0 -0 -0 -0 -0 -0 -0 -0 -0 -0 -0 -0 -0 -0 -0 -0 -0 -0 -0 -0 -0 -0 -0 -0 -0 -0 -0 -0 -0 -0 -0 -0 -0 -0 -0 -0 -0 -0 -0 -0 -0
-0 -0 -0 -0 -0 -0 -0 -0 -0 -0 -0 -0 -0 -0 -0 -0 -0 -0 -0 -0 -0 -0 -0 -0 -0 -0 -0 -0 -0 -0 -0 -0 -0 -0 -0 -0 -0 -0 -0 -0 -0 -0 -0 -0 -0 -0 -0 -0 -0 -0 -0 -0 -0 -0
-0 -0 -0 -0 -0 -0 -0 -0 -0 -0 -0 -0 -0 -0 -0 -0 -0 -0 -0 -0 -0 -0 -0 -0 -0 -0 -0 -0 -0 -0 -0 -0 -0 -0 -0 -0 -0 -0 -0 -0 -0 -0 -0 -0 -0 -0 -0 -0 -0 -0 -0 -0 -0 -0
-0 -0 -0 -0 -0 -0 -0 -0 -0 -0 -0 -0 -0 -0 -0 -0 -0 -0 -0 -0 -0 -0 -0 -0 -0 -0 -0 -0 -0 -0 -0 -0 -0 -0 -0 -0 -0 -0 -0 -0 -0 -0 -0 -0 -0 -0 -0 -0 -0 -0 -0 -0 -0 -0
-0 -0 -0 -0 -0 -0 -0 -0 -0 -0 -0 -0 -0 -0 -0 -0 -0 -0 -0 -0 -0 -0 -0 -0 -0 -0 -0 -0 -0 -0 -0 -0 -0 -0 -0 -0 -0 -0 -0 -0 -0 -0 -0 -0 -0 -0 -0 -0 -0 -0 -0 -0 -0 -0
-0 -0 -0 -0 -0 -0 -0 -0 -0 -0 -0 -0 -0 -0 -0 -0 -0 -0 -0 -0 -0 -0 -0 -0 -0 -0 -0 -0 -0 -0 -0 -0 -0 -0 -0 -0 -0 -0 -0 -0 -0 -0 -0 -0 -0 -0 -0 -0 -0 -0 -0 -0 -0 -0
-0 -0 -0 -0 -0 -0 -0 -0 -0 -0 -0 -0 -0 -0 -0 -0 -0 -0 -0 -0 -0 -0 -0 -0 -0 -0 -0 -0 -0 -0 -0 -0 -0 -0 -0 -0 -0 -0 -0 -0 -0 -0 -0 -0 -0 -0 -0 -0 -0 -0 -0 -0 -0 -0
-0 -0 -0 -0 -0 -0 -0 -0 -0 -0 -0 -0 -0 -0 -0 -0 -0 -0 -0 -0 -0 -0 -0 -0 -0 -0 -0 -0 -0 -0 -0 -0 -0 -0 -0 -0 -0 -0 -0 -0 -0 -0 -0 -0 -0 -0 -0 -0 -0 -0 -0 -0 -0 -0
-0 -0 -0 -0 -0 -0 -0 -0 -0 -0 -0 -0 -0 -0 -0 -0 -0 -0 -0 -0 -0 -0 -0 -0 -0 -0 -0 -0 -0 -0 -0 -0 -0 -0 -0 -0 -0 -0 -0 -0 -0 -0 -0 -0 -0 -0 -0 -0 -0 -0 -0 -0 -0 -0
-0 -0 -0 -0 -0 -0 -0 -0 -0 -0 -0 -0 -0 -0 -0 -0 -0 -0 -0 -0 -0 -0 -0 -0 -0 -0 -0 -0 -0 -0 -0 -0 -0 -0 -0 -0 -0 -0 -0 -0 -0 -0 -0 -0 -0 -0 -0 -0 -0 -0 -0 -0 -0 -0
-0 -0 -0 -0 -0 -0 -0 -0 -0 -0 -0 -0 -0 -0 -0 -0 -0 -0 -0 -0 -0 -0 -0 -0 -0 -0 -0 -0 -0 -0 -0 -0 -0 -0 -0 -0 -0 -0 -0 -0 -0 -0 -0 -0 -0 -0 -0 -0 -0 -0 -0 -0 -0 -0
Wind_Speed
31 32 32 28 26 23 21 20 21 18 15 13 9 8 5 5 6 3 12 3 2 16 24 18 17 20 24 25 27 25 24 20 19 17 18 18 20 20 21 21 26 24 29 33 32 33 37 23 21 23 19 15 12 11
29 29 30 30 28 25 23 22 22 20 17 12 9 6 5 6 3 2 11 5 1 8 18 19 26 30 31 31 29 24 24 23 19 17 18 19 20 20 20 21 20 23 26 27 27 29 23 21 20 16 17 13 13 11
29 24 27 29 27 26 26 25 25 23 19 13 10 4 5 3 1 1 10 3 8 11 19 19 26 24 33 36 29 26 25 23 22 20 20 18 18 15 17 17 15 22 23 21 19 24 21 18 18 16 12 8 8 11
27 25 23 30 31 31 30 27 25 24 21 15 7 7 5 5 23 14 8 2 4 10 5 21 2 27 26 29 32 35 34 22 22 22 24 23 21 18 18 18 17 12 21 19 20 17 18 15 16 13 6 7 8 11
29 28 28 29 34 31 32 32 29 27 24 14 10 23 30 31 29 2 9 12 12 6 9 21 23 23 23 29 32 33 33 29 26 25 26 26 23 21 19 19 15 11 11 20 20 19 22 18 18 10 8 10 12 14
32 31 28 33 37 34 32 32 29 29 23 14 22 32 34 27 5 5 9 12 16 11 5 18 21 22 18 16 25 22 23 24 26 24 26 24 23 21 20 19 16 15 9 12 15 21 15 9 9 10 9 10 12 14
36 35 27 25 34 33 33 34 31 27 22 23 30 33 33 23 8 2 5 11 11 12 5 21 24 20 23 26 23 22 22 25 27 28 28 28 27 24 23 22 19 14 12 12 7 10 9 7 10 9 9 11 13 15
38 37 33 24 37 37 38 37 33 35 32 33 33 32 30 19 10 12 32 21 5 4 6 23 22 20 17 16 17 19 20 24 23 27 23 25 24 25 24 21 19 18 17 15 13 10 9 9 12 15 16 18 20 21
38 36 37 42 41 41 38 36 39 38 36 34 31 25 16 15 15 17 13 12 15 5 11 22 21 19 17 17 17 17 18 25 23 26 25 22 25 26 22 21 21 20 20 21 20 18 18 17 19 21 22 23 21 22
41 41 43 43 42 41 40 40 40 39 38 33 18 17 16 14 7 1 7 3 16 19 24 24 23 22 21 21 20 18 17 24 24 25 18 27 29 21 21 20 21 22 23 24 25 27 27 26 25 26 25 25 24 23
41 42 42 42 42 42 41 41 40 38 35 22 19 15 10 5 10 11 9 4 3 24 26 26 26 24 22 21 20 19 16 17 24 23 23 25 26 22 20 20 21 23 24 25 25 25 26 27 28 27 27 26 25 23
41 42 42 42 42 42 41 40 40 32 21 13 7 6 6 11 15 15 14 8 8 24 25 23 24 26 23 21 19 20 18 14 21 11 19 24 21 19 20 21 23 24 24 23 24 25 26 26 26 26 26 26 25 23
41 41 41 41 41 40 41 41 35 14 17 13 14 15 13 15 18 28 30 16 9 21 20 21 21 20 20 22 19 18 21 20 15 17 18 17 16 17 19 20 21 21 21 22 24 24 25 25 25 25 25 25 24 23
43 42 42 42 41 38 26 20 22 17 17 17 15 12 14 18 23 21 27 20 20 19 20 20 19 20 18 20 20 18 19 19 18 19 20 17 16 16 18 19 19 21 21 22 23 24 24 24 24 24 25 25 24 23
42 39 36 34 26 19 26 27 19 18 16 15 15 14 16 17 17 20 19 20 19 19 18 16 16 18 19 21 21 20 20 20 19 20 18 17 18 19 20 20 21 22 22 23 23 24 24 24 24 25 25 24 23 22
41 33 28 21 21 32 32 20 19 16 14 15 15 15 15 16 18 17 16 18 19 19 17 15 17 20 22 21 21 21 22 23 21 19 16 18 20 20 21 21 21 21 21 22 23 24 25 25 25 24 24 23 22 21
29 26 25 25 23 22 20 21 18 15 15 15 14 12 10 13 15 17 16 17 19 19 17 16 19 19 18 18 18 19 20 18 13 15 17 18 19 19 21 22 21 20 21 22 23 25 25 24 23 22 23 23 21 20
24 26 28 24 23 25 21 16 18 17 15 13 11 11 10 12 13 14 17 17 17 15 16 17 17 19 19 19 19 18 17 14 14 14 16 17 18 19 20 22 21 21 21 21 22 23 22 22 22 21 20 20 19 19
25 24 27 32 27 24 21 19 16 15 13 11 8 10 9 10 11 14 16 15 13 13 12 15 17 18 18 17 16 17 17 17 16 16 17 18 17 18 20 21 21 21 21 21 22 22 21 20 20 19 18 18 18 18
20 18 19 17 17 20 19 18 16 14 13 14 12 12 13 13 14 14 14 14 14 14 15 16 17 17 15 16 17 17 18 18 14 16 18 19 20 19 20 20 20 20 20 20 20 19 19 19 19 18 17 17 17 16
22 20 17 18 15 12 18 19 16 17 17 16 17 15 14 13 14 15 15 16 14 16 15 14 14 15 16 17 17 18 19 18 18 17 18 19 20 18 20 20 20 20 20 19 19 19 18 18 17 17 17 17 16 15
22 18 21 16 17 16 16 16 20 21 18 21 19 16 17 16 16 15 16 15 15 17 15 13 14 15 16 17 19 19 19 19 19 19 19 19 20 20 20 19 19 19 18 18 17 17 17 16 16 16 16 16 15 15
19 18 17 17 19 18 22 19 19 19 20 21 19 18 17 17 14 15 14 15 14 16 13 13 15 15 16 17 17 19 19 19 19 20 20 19 19 19 19 19 18 18 18 17 16 16 16 15 15 15 15 15 14 14
15 17 18 19 18 21 21 20 19 20 20 20 19 17 16 15 14 15 14 14 15 15 12 13 15 16 17 18 19 20 21 19 19 20 21 19 19 20 19 19 19 18 17 16 17 16 16 16 15 15 15 14 14 14
21 17 17 19 18 21 22 22 21 20 20 19 18 16 15 14 15 15 14 13 14 14 15 15 17 18 17 18 19 20 21 20 20 20 21 20 19 19 19 19 19 19 18 17 17 17 16 16 15 15 15 14 14 14
20 17 19 20 21 22 22 22 21 21 21 18 17 17 16 16 15 15 14 13 13 13 14 16 17 18 19 19 19 21 21 20 19 20 22 21 20 20 20 21 21 21 21 18 17 18 17 17 16 16 15 15 14 14
20 19 19 17 21 23 23 22 23 21 19 17 17 17 16 16 15 14 14 14 15 14 14 15 16 17 18 18 19 21 21 20 19 19 19 20 20 20 20 20 21 21 21 19 18 17 17 16 16 15 15 15 15 14
19 20 24 22 23 22 23 22 19 17 17 17 18 17 16 16 16 15 15 16 17 17 18 19 19 19 19 20 20 18 18 17 17 18 19 20 21 21 21 20 20 21 20 19 18 17 16 16 15 14 14 15 15 14
15 23 22 22 22 20 19 17 16 17 18 18 18 18 18 19 18 18 18 18 19 19 19 19 20 20 21 22 22 22 18 14 15 19 20 20 20 22 22 21 21 21 21 20 19 17 15 15 14 14 15 15 15 15
18 18 16 17 17 17 18 18 19 19 19 19 20 22 22 21 20 19 18 18 18 17 17 17 17 18 19 20 20 21 22 21 17 15 17 18 18 19 21 21 21 21 20 19 18 17 16 15 14 15 15 15 16 16
13 14 14 16 17 18 20 21 21 20 20 21 21 21 20 19 19 20 18 18 18 19 19 19 18 17 17 17 17 17 17 19 20 19 19 18 18 19 20 20 20 20 19 18 18 17 15 15 15 14 15 15 16 15
10 11 13 14 15 17 16 17 17 18 17 17 17 17 17 17 17 16 17 16 16 17 18 18 19 18 18 18 18 18 18 17 18 18 18 18 18 19 19 19 18 17 17 17 17 17 16 14 14 14 15 16 16 17
8 10 11 13 12 12 12 13 14 14 14 14 14 14 15 15 15 14 15 14 14 15 17 17 18 18 19 19 19 18 18 18 18 18 19 19 20 20 20 20 19 17 17 18 18 17 16 15 15 15 15 16 17 17
Wind_Direction
256 255 253 255 253 254 259 268 274 273 278 277 273 295 305 310 315 320 298 291 284 306 294 305 311 301 287 282 265 272 283 291 290 289 279 285 281 280 274 281 283 273 257 249 251 253 251 280 283 268 276 277 277 298
255 254 252 252 250 249 254 262 269 271 275 272 268 276 298 307 302 305 300 312 156 319 310 311 285 272 264 263 264 271 264 270 277 281 295 273 264 255 258 269 285 284 274 259 253 255 275 282 293 291 289 285 282 296
251 249 249 250 246 247 250 256 262 268 271 267 277 252 283 289 215 168 300 17 319 329 228 228 232 223 241 229 252 262 262 264 271 272 270 249 242 248 235 227 245 269 250 260 259 263 272 285 285 280 299 290 301 306
243 245 248 249 249 248 245 249 257 263 265 264 267 282 280 277 187 164 155 105 337 352 46 271 34 255 267 246 211 211 233 271 272 274 254 244 235 238 235 246 266 282 255 257 253 268 264 276 279 273 299 296 305 317
236 244 251 250 244 245 243 243 249 257 261 259 269 263 202 204 195 170 159 166 159 121 99 248 270 252 243 244 221 225 237 252 261 259 247 244 244 248 238 246 246 266 261 239 249 266 259 265 271 280 288 291 308 313
238 243 248 245 238 239 240 241 248 255 256 257 260 239 223 188 167 317 144 169 172 156 76 307 280 260 273 277 242 261 258 255 253 257 250 262 262 252 242 252 267 279 262 304 246 249 263 289 301 298 303 314 319 320
235 238 245 246 233 233 234 238 247 252 252 253 244 233 232 256 168 235 2 331 129 145 65 287 255 259 248 242 253 260 257 251 246 249 254 256 252 254 244 252 278 287 285 301 304 257 279 326 264 288 313 319 320 325
229 231 237 236 225 227 231 236 241 229 234 232 232 235 240 260 263 174 198 277 349 91 39 238 256 264 276 273 275 270 260 247 253 248 265 256 255 249 247 261 274 274 282 298 296 298 294 298 305 307 315 313 308 308
224 230 228 218 223 225 229 226 214 215 217 221 226 239 255 260 260 260 275 279 275 350 302 243 249 266 264 272 283 275 260 242 253 247 255 263 253 247 265 272 285 285 285 281 282 299 300 292 299 303 307 311 314 312
218 219 215 216 215 213 214 211 207 204 200 209 238 243 255 256 266 34 299 76 268 259 236 229 226 218 215 217 245 272 255 241 243 252 275 257 259 278 281 289 293 294 292 294 290 287 294 292 288 292 304 306 308 314
203 203 205 205 205 207 206 204 204 206 210 224 231 243 262 141 257 275 295 48 6 202 223 219 192 197 201 183 192 248 266 262 248 256 256 260 259 273 287 294 300 302 305 310 309 309 307 304 299 298 302 311 316 319
194 198 202 203 201 201 203 205 204 214 221 210 209 210 245 256 261 269 274 302 299 191 222 215 206 193 203 218 187 190 247 273 261 292 271 263 276 288 289 294 300 307 311 314 317 315 314 313 312 309 310 312 314 319
194 194 194 196 199 200 197 197 205 171 135 189 218 242 256 256 253 228 196 261 290 238 244 242 231 235 246 221 224 229 224 238 260 253 256 278 295 294 297 301 304 310 314 315 317 319 319 320 319 316 314 314 318 319
190 189 188 188 188 193 199 148 143 157 198 224 238 244 265 256 247 249 223 245 247 254 250 244 243 239 259 245 240 239 240 244 251 255 264 278 294 296 302 303 307 309 313 315 319 323 325 324 323 322 320 319 319 317
178 182 184 187 193 141 134 135 163 201 219 235 245 261 264 262 261 253 254 249 257 259 257 259 261 261 248 240 241 242 248 244 267 269 285 296 295 297 298 304 309 312 316 319 324 326 327 327 325 324 324 323 322 322
178 181 190 182 145 130 128 167 197 213 234 239 252 258 259 257 250 249 257 250 257 257 256 265 257 252 246 250 256 258 261 267 276 292 314 313 309 309 311 314 317 323 327 329 331 332 331 329 327 329 330 330 330 330
175 177 129 128 136 152 173 188 201 218 227 238 254 267 283 257 250 243 253 254 255 252 256 266 261 264 274 275 281 287 287 299 327 333 332 331 325 322 322 322 325 331 332 334 336 335 336 338 339 337 334 335 338 338
126 124 123 128 155 172 182 198 202 209 222 233 258 261 262 250 248 257 261 268 265 270 273 275 285 278 284 289 296 305 317 338 342 344 345 344 341 337 329 325 326 327 331 335 338 340 344 346 344 344 346 346 346 345
132 136 154 166 175 179 190 198 205 213 228 242 259 263 269 276 286 277 274 278 292 300 300 295 297 297 303 313 315 321 326 326 329 332 336 342 343 338 334 330 330 330 331 333 335 337 345 349 349 349 348 347 347 348
140 143 158 167 184 186 192 201 212 222 237 240 253 262 266 276 277 289 301 300 301 299 300 299 302 311 319 326 326 326 326 328 340 334 330 331 333 333 334 335 335 336 336 340 341 346 348 348 349 349 350 357 352 351
163 169 176 180 186 200 190 195 208 209 214 222 216 232 249 270 278 284 294 294 309 305 307 314 321 323 325 328 332 333 333 335 334 335 334 334 333 336 335 334 334 332 333 335 336 338 340 344 355 359 2 6 7 4
169 181 182 196 190 193 190 201 187 187 201 192 200 229 221 230 246 277 287 305 305 302 312 327 333 334 333 332 332 334 336 337 336 336 336 335 333 334 335 337 337 338 339 341 340 339 343 352 356 1 5 7 9 9
184 188 189 196 188 188 174 189 182 191 172 172 182 173 179 181 282 320 5 341 341 325 346 351 349 350 349 347 348 344 343 343 341 340 338 338 338 338 339 338 339 340 339 339 345 341 342 349 352 355 358 2 4 360
200 193 186 184 183 171 179 177 184 171 165 162 155 142 137 110 16 18 28 9 350 353 6 6 2 357 350 347 345 343 341 344 345 343 340 340 339 338 339 339 338 340 340 341 336 336 337 338 345 343 345 347 347 347
173 183 185 171 186 165 158 157 158 151 145 135 121 108 92 64 53 39 35 35 18 12 8 5 358 356 353 351 349 347 348 347 345 343 341 343 344 343 340 340 338 336 337 332 329 330 330 333 334 335 335 336 336 336
165 177 166 162 160 152 149 143 142 131 125 122 115 100 81 74 72 58 45 53 38 33 29 22 18 13 8 5 359 352 349 351 350 347 343 340 339 338 335 331 329 330 333 335 329 325 324 323 323 324 324 325 327 327
169 168 170 180 161 143 129 125 121 109 105 99 100 91 81 74 73 61 53 50 42 41 39 32 26 21 18 12 6 2 4 5 1 360 359 355 351 347 342 337 333 331 335 336 332 330 328 326 325 325 324 324 325 325
174 171 138 150 123 129 112 107 104 98 93 94 86 75 72 71 72 67 59 59 56 48 41 36 32 27 22 14 9 10 10 14 14 10 6 1 359 355 349 349 345 343 342 342 338 337 334 332 331 330 329 327 326 327
194 148 97 81 92 82 79 87 87 88 88 86 79 75 73 69 68 67 68 68 65 54 49 42 36 35 30 25 20 18 18 21 13 360 355 352 352 347 343 344 344 344 342 343 342 343 344 342 340 338 336 335 334 333
85 79 65 64 67 64 61 74 80 79 71 71 72 74 70 65 58 59 71 66 58 54 53 50 48 40 35 32 32 30 24 20 23 22 14 9 8 360 352 347 344 342 348 349 348 352 359 360 356 350 346 341 337 335
58 60 52 55 59 61 70 65 61 57 63 65 67 70 73 70 59 43 56 61 58 55 52 48 45 46 44 42 41 41 38 29 24 25 28 28 26 18 11 2 355 350 352 352 350 349 354 360 2 1 357 352 347 345
19 41 71 66 72 92 68 64 62 67 69 66 65 65 65 59 61 56 48 63 56 51 47 48 47 46 49 50 51 48 43 42 34 29 26 23 19 16 19 20 24 33 27 19 11 5 359 1 358 357 356 353 350 348
30 46 58 53 65 74 76 62 55 57 56 58 59 63 56 56 52 54 43 54 57 52 52 53 55 59 56 55 54 52 46 41 35 29 27 24 19 13 10 8 14 23 23 21 20 23 25 29 24 16 7 0 355 352